Location: Conflandey
(47.7287°N, 6.0456°E)
Time: 04:09:18
(UTC+00:00)

Okean 1-7 Rocket - Pass Details

Date: 24 October 2021
Orbit: 617 x 648 km, 82.5° (Epoch: 05 December)

Event Time Altitude Azimuth Distance (km) Brightness Sun altitude
Rises 17:51:26 0° 347° (NNW) 2,910 7.1 -14.1°
Reaches altitude 10° 17:53:40 10° 345° (NNW) 2,002 6.3 -14.5°
Maximum altitude 17:58:03 64° 265° (W) 695 4.0 -15.2°
Drops below altitude 10° 18:02:27 10° 183° (S) 2,003 6.2 -16.0°
Sets 18:04:42 0° 181° (S) 2,911 7.0 -16.4°
